www.pogodaiklimat.ru

Погода и климат >> Архив погоды >> Австралия >> Morawa Airport


ПОГОДА в Morawa Airport

  • Прогноз погоды в Morawa Airport
  • Монитор погоды в Morawa Airport
  • Климат города

АРХИВ ПОГОДЫ в Morawa Airport

Время (UTC), дата Ветер
(напр.,м/с)
 
Видим.   Явления Облачность Т
(С)
Тd
(С)
f
(%)
Тe
(С)
Тes
(С)
Комфортность P
(гПа)
Po
(гПа)
Тmin
(С)
Tmax
(С)
R
(мм)
R24
(мм)
S
(см)
22 17.04 ЮЗ 2 н/о н/о +12.5 +12.5 100 +12 +12 1018.3 987.0
00 18.04 Ю 2 н/о н/о +15.3 +13.5 89 +15 +15 1018.7 987.4
01 18.04 Ю 4 н/о н/о +18.9 +13.3 70 +20 +20 1018.7 987.4 +11.6
03 18.04 Ю 4 н/о н/о +22.4 +12.4 53 +25 +25 комфорт 1017.8 986.5
04 18.04 Ю 4 н/о н/о +23.7 +12.4 49 +26 +26 жарко 1017.1 985.8
06 18.04 Ю 4 н/о н/о +25.4 +10.8 40 +26 +26 жарко 1015.5 984.3
07 18.04 Ю 4 н/о н/о +24.7 +11.3 43 +26 +26 жарко 1015.3 984.1
09 18.04 Ю 5 н/о н/о +25.2 +10.3 39 +26 +26 жарко 1014.9 983.7
10 18.04 Ю 3 н/о н/о +23.6 +10.3 43 +25 +25 комфорт 1015.3 984.1
12 18.04 Ю 5 н/о н/о +20.0 +10.1 53 +21 +21 комфорт 1016.8 985.5
13 18.04 Ю 5 н/о н/о +18.5 +10.3 59 +19 +19 1016.9 985.6 +26.4
15 18.04 Ю 4 н/о н/о +16.2 +9.6 65 +16 +16 1016.8 985.5
16 18.04 Ю 3 н/о н/о +15.0 +8.9 67 +15 +15 1016.3 985.0
18 18.04 Ю 2 н/о н/о +13.3 +8.8 74 +13 +13 1015.7 984.5
19 18.04 Ю 1 н/о н/о +11.9 +8.2 78 +13 +13 1015.1 983.9
21 18.04 Ю 1 н/о н/о +10.5 +8.3 86 +11 +11 1015.0 983.8
22 18.04 штиль 0 н/о н/о +9.6 +7.4 86 +9 +9 1015.1 983.9
00 19.04 штиль 0 н/о н/о +14.3 +8.9 70 +14 +14 1015.7 984.5
01 19.04 В 1 н/о н/о +17.3 +7.9 54 +18 +18 1016.1 984.8 +9.3
03 19.04 ЮВ 3 н/о н/о +19.8 +7.2 44 +21 +21 комфорт 1015.2 984.0
04 19.04 З 2 н/о н/о +21.4 +7.6 41 +22 +22 комфорт 1014.4 983.2
06 19.04 ЮЗ 2 н/о н/о +23.8 +6.6 33 +24 +24 комфорт 1012.4 981.3
07 19.04 З 2 н/о н/о +25.0 +6.7 31 +25 +25 комфорт 1012.0 980.9
09 19.04 З 4 н/о н/о +24.2 +6.0 31 +24 +24 комфорт 1012.2 981.1
10 19.04 З 5 н/о н/о +21.8 +9.0 44 +23 +23 комфорт 1012.8 981.6
12 19.04 ЮЗ 4 н/о н/о +18.1 +10.5 61 +18 +18 1014.4 983.2
13 19.04 ЮЗ 3 н/о н/о +17.0 +10.8 67 +17 +17 1014.6 983.4 +25.8
15 19.04 ЮЗ 2 н/о н/о +15.1 +10.7 75 +15 +15 1014.7 983.5
16 19.04 ЮЗ 2 н/о н/о +14.4 +10.8 79 +14 +14 1014.6 983.4
18 19.04 ЮЗ 1 н/о н/о +12.3 +10.4 88 +12 +12 1014.6 983.4
19 19.04 ЮЗ 1 н/о н/о +11.3 +10.0 92 +11 +11 1014.7 983.5
21 19.04 штиль 0 н/о н/о +9.9 +9.3 96 +9 +9 1015.4 984.2
22 19.04 штиль 0 н/о н/о +9.4 +8.8 96 +8 +8 1015.5 984.3
00 20.04 В 1 н/о н/о +14.6 +10.2 75 +16 +16 1016.4 985.1
01 20.04 В 2 н/о н/о +17.7 +9.3 58 +18 +18 1016.8 985.5 +9.3
03 20.04 В 3 н/о н/о +21.5 +8.4 43 +23 +23 комфорт 1015.9 984.6
04 20.04 В 2 н/о н/о +22.8 +7.0 36 +24 +24 комфорт 1015.3 984.1
06 20.04 З 3 н/о н/о +25.2 +5.9 29 +25 +25 комфорт 1014.2 983.0
07 20.04 З 4 н/о н/о +25.9 +6.0 28 +25 +25 комфорт 1013.9 982.7
09 20.04 ЮЗ 4 н/о н/о +26.2 +5.2 26 +25 +25 комфорт 1013.8 982.6
10 20.04 З 2 н/о н/о +24.2 +5.1 29 +24 +24 комфорт 1014.2 983.0
12 20.04 штиль 0 н/о н/о +17.8 +3.7 39 +18 +18 1015.2 984.0
13 20.04 Ю 1 н/о н/о +16.1 +3.9 44 +18 +18 1015.2 984.0 +27.3
15 20.04 штиль 0 н/о н/о +14.6 +4.6 51 +15 +15 1015.3 984.1
16 20.04 З 2 н/о н/о +14.5 +5.6 55 +15 +15 1015.2 984.0
18 20.04 З 2 н/о н/о +14.4 +5.7 56 +14 +14 1015.4 984.2
19 20.04 ЮЗ 1 н/о н/о +13.4 +5.8 60 +14 +14 1015.3 984.1
21 20.04 штиль 0 н/о н/о +11.9 +5.5 65 +12 +12 1015.3 984.1
22 20.04 штиль 0 н/о н/о +12.4 +5.8 64 +12 +12 1015.7 984.5
00 21.04 штиль 0 н/о н/о +15.1 +6.4 56 +15 +15 1016.7 985.4
01 21.04 В 1 н/о н/о +19.1 +6.6 44 +21 +21 комфорт 1017.0 985.7 +11.9
03 21.04 В 3 н/о н/о +22.1 +6.3 36 +23 +23 комфорт 1016.4 985.1
04 21.04 С 2 н/о н/о +25.7 +7.3 31 +26 +26 жарко 1016.5 985.2
06 21.04 СВ 2 н/о н/о +29.6 +8.1 26 +29 +29 жарко 1013.5 982.3
07 21.04 С 4 н/о н/о +30.8 +7.9 24 +30 +30 жарко 1013.0 981.8
09 21.04 С 3 н/о н/о +30.4 +7.6 24 +29 +29 жарко 1012.3 981.2
10 21.04 СЗ 2 н/о н/о +27.7 +7.0 27 +27 +27 жарко 1012.7 981.5
12 21.04 Ю 4 н/о н/о +24.4 +6.6 32 +24 +24 комфорт 1013.7 982.5
13 21.04 ЮЗ 6 н/о н/о +22.8 +9.2 42 +24 +24 комфорт 1014.4 983.2 +31.9
15 21.04 В 3 н/о н/о +20.1 +10.2 53 +22 +22 комфорт 1013.3 982.1
16 21.04 В 4 н/о н/о +20.1 +10.5 54 +22 +22 комфорт 1012.2 981.1
18 21.04 ЮВ 1 н/о н/о +18.3 +10.4 60 +20 +20 1012.4 981.3
19 21.04 ЮЗ 3 н/о н/о +18.9 +11.0 60 +20 +20 1013.3 982.1
21 21.04 СВ 2 н/о н/о +19.6 +11.4 59 +21 +21 комфорт 1013.2 982.0
22 21.04 Ю 2 н/о н/о +19.8 +11.3 58 +22 +22 комфорт 1012.3 981.2
00 22.04 СЗ 4 н/о н/о +21.0 +11.1 53 +23 +23 комфорт 1014.5 983.3
01 22.04 ЮЗ 1 н/о н/о +21.3 +10.8 51 +23 +23 комфорт 1013.8 982.6 +15.2
03 22.04 С 2 н/о н/о +23.2 +10.9 46 +25 +25 комфорт 1014.0 982.8
04 22.04 С 3 н/о н/о +24.5 +11.1 43 +26 +26 жарко 1012.9 981.7
06 22.04 З 8 н/о н/о +29.0 +8.7 28 +29 +29 жарко 1010.8 979.7
07 22.04 З 8 н/о н/о +28.9 +13.2 38 +30 +30 жарко 1011.2 980.1
09 22.04 З 6 н/о н/о +24.3 +15.2 57 +27 +27 жарко 1012.7 981.5
10 22.04 З 6 н/о н/о +22.7 +15.0 62 +27 +27 душно 1013.5 982.3
12 22.04 З 4 н/о н/о +20.3 +14.4 69 +23 +23 комфорт 1015.6 984.4
13 22.04 З 4 н/о н/о +19.5 +15.8 79 +22 +22 комфорт 1015.6 984.4 +30.1
15 22.04 З 2 н/о н/о +18.4 +16.0 86 +20 +20 1015.7 984.5
16 22.04 З 2 н/о н/о +18.0 +16.3 90 +19 +19 1015.6 984.4
18 22.04 З 1 н/о н/о +16.6 +16.1 97 +17 +17 1015.4 984.2
19 22.04 ЮЗ 1 н/о н/о +16.4 +16.1 98 +17 +17 1015.4 984.2
21 22.04 З 2 н/о н/о +14.0 +14.0 100 +14 +14 1016.1 984.8
22 22.04 СЗ 2 н/о н/о +13.4 +13.4 100 +13 +13 1016.5 985.2
00 23.04 СЗ 1 н/о н/о +17.1 +13.4 79 +18 +18 1017.7 986.4
01 23.04 ЮЗ 3 н/о н/о +19.1 +13.1 68 +20 +20 1018.4 987.1 +13.3
03 23.04 Ю 3 н/о н/о +21.9 +11.9 53 +24 +24 комфорт 1018.2 986.9
04 23.04 З 3 н/о н/о +23.4 +8.7 39 +25 +25 комфорт 1017.5 986.2
06 23.04 ЮЗ 3 н/о н/о +24.2 +8.2 36 +25 +25 комфорт 1016.3 985.0
07 23.04 ЮЗ 2 н/о н/о +25.2 +8.2 34 +26 +26 жарко 1016.1 984.8
09 23.04 Ю 4 н/о н/о +24.2 +8.6 37 +25 +25 комфорт 1016.4 985.1
10 23.04 ЮЗ 2 н/о н/о +22.6 +8.0 39 +24 +24 комфорт 1016.8 985.5
12 23.04 ЮЗ 4 н/о н/о +19.3 +10.6 57 +20 +20 1018.1 986.8
13 23.04 ЮЗ 4 н/о н/о +18.1 +10.7 62 +18 +18 1018.7 987.4 +26.1
15 23.04 Ю 3 н/о н/о +15.8 +10.6 71 +15 +15 1018.7 987.4
16 23.04 Ю 3 н/о н/о +14.9 +10.5 75 +14 +14 1018.6 987.3
18 23.04 Ю 2 н/о н/о +13.6 +10.4 81 +13 +13 1018.4 987.1
19 23.04 Ю 2 н/о н/о +12.9 +10.3 84 +12 +12 1018.2 986.9
21 23.04 ЮЗ 2 н/о н/о +12.5 +10.7 89 +11 +11 1018.8 987.5
22 23.04 Ю 2 н/о н/о +11.6 +10.3 92 +11 +11 1019.3 987.9
00 24.04 Ю 2 н/о н/о +13.8 +10.4 80 +13 +13 1020.5 989.1
01 24.04 ЮВ 3 н/о н/о +17.2 +10.1 63 +17 +17 1020.8 989.4 +11.0
03 24.04 ЮВ 4 н/о н/о +22.2 +8.0 40 +23 +23 комфорт 1019.8 988.4
04 24.04 ЮВ 3 н/о н/о +23.0 +7.9 38 +24 +24 комфорт 1018.9 987.6
06 24.04 Ю 3 н/о н/о +24.4 +7.5 34 +25 +25 комфорт 1017.1 985.8
07 24.04 Ю 4 н/о н/о +25.0 +7.2 32 +25 +25 комфорт 1016.9 985.6
09 24.04 Ю 5 н/о н/о +24.1 +7.3 34 +24 +24 комфорт 1017.1 985.8
10 24.04 Ю 4 н/о н/о +22.3 +6.5 36 +23 +23 комфорт 1017.6 986.3
12 24.04 Ю 3 н/о н/о +18.8 +6.3 44 +20 +20 1018.5 987.2
13 24.04 Ю 2 н/о н/о +17.4 +6.0 47 +18 +18 1018.7 987.4 +25.7
15 24.04 Ю 4 н/о н/о +15.9 +8.9 63 +15 +15 1019.1 987.7
18 24.04 Ю 3 н/о н/о +13.8 +8.6 71 +13 +13 1019.2 987.8
19 24.04 Ю 3 н/о н/о +13.1 +7.8 70 +12 +12 1019.1 987.7

 

Местоположение метеостанции Morawa Airport (Западная Австралия, Австралия): широта -29.20 долгота 116.02 высота над уровнем моря 272 м.

В архиве по умолчанию представлена погода в Morawa Airport за последнюю неделю. Архивные данные за месяц целиком и за предыдущие месяцы, начиная с января 2011 года, Вы можете получить, выбрав интересующий диапазон дат из раскрывающегося списка и нажав кнопку "Ввод!".


*Определитесь, кто Вы:
робот инопланетянин человек

Внимание! Время в таблицах - всемирное. Для получения местного времени необходимо прибавить поправку, которая в Morawa Airport равна 8 ч.

Смотрите также архив погоды в соседних городах и на ближайших метеорологических станциях:

Погода в Rottnest Island Lighthouse (Западная Австралия, Австралия) (134 км)
Погода в Dalwallinu (Западная Австралия, Австралия) (136 км)
Погода в Geraldton Airport (Западная Австралия, Австралия) (136 км)
Погода в Mount Magnet Aero (Западная Австралия, Австралия) (214 км)
Погода в Gingin Aero (Западная Австралия, Австралия) (253 км)
Погода в Bullsbrook Pearce Amo (Западная Австралия, Австралия) (275 км)
Погода в Wanneroo (Западная Австралия, Австралия) (286 км)
Погода в Cunderdin Airfield (Западная Австралия, Австралия) (293 км)
Погода в Mount Lawley Perth Metro (Западная Австралия, Австралия) (303 км)
Погода в Perth (Западная Австралия, Австралия) (304 км)

Пояснения к столбцам:

Ветер - указаны скорость ветра в м/с - средняя за 10 мин, порывы в срок и между сроками (в фигурных скобках) и направление, откуда дует ветер: С - северный, СВ - северо-восточный, В - восточный, ЮВ - юго-восточный, Ю - южный, ЮЗ - юго-западный, З - западный, СЗ - северо-западный.
Видимость - горизонтальная дальность видимости в метрах или километрах. При видимости от 1 до 10 км при отсутствии осадков обычно наблюдается дымка, при ухудшении видимости до 1 км и менее - туман. В сухую погоду видимость может ухудшаться дымом, пылью или мглою.
Явления - указаны атмосферные явления, наблюдавшиеся в срок или в последний час перед сроком; фигурными скобками обозначены явления, наблюдавшиеся между сроками (за 1-3 часа до срока); квадратными скобками обозначены град или гололедные отложения с указанием их диаметра в мм.
Облачность - указаны через наклонную черту общая и нижняя облачность в баллах и высота нижней границы облаков в метрах; квадратными скобками обозначены формы облаков: Ci - перистые, Cs - перисто-слоистые, Cc - перисто-кучевые, Ac - высококучевые, As - высокослоистые, Sc - слоисто-кучевые, Ns - слоисто-дождевые, Cu - кучевые, Cb - кучево-дождевые. Подробнее классификацию облаков см. в Атласе облаков (PDF).
T - Температура воздуха - температура, измеренная на высоте 2 м над землей.
Td - Температура точки росы - температура, при понижении до которой содержащийся в воздухе водяной пар достигнет насыщения.
f - Относительная влажность воздуха - влажноcть воздуха, измеренная на высоте 2 м над землей.
Te - Эффективная температура - температура, которую ощущает одетый по сезону человек в тени. Характеристика душности погоды. При расчете учитывается влияние влажности воздуха и скорости ветра на теплоощущения человека.
Tes - Эффективная температура на солнце - температура, которую ощущает человек, с поправкой на солнечный нагрев. Характеристика знойности погоды. Зависит от высоты солнца над горизонтом, облачности и скорости ветра. Ночью, в пасмурную погоду, а также при ветре 12 м/с и более поправка равна нулю.
P - Атмосферное давление - приведенное к уровню моря атмосферное давление.
Po - Атмосферное давление - измеренное на уровне метеостанции атмосферное давление.
Tmin - Минимальная температура - минимум температуры воздуха на высоте 2 м над землей.
Tmax - Максимальная температура - максимум температуры воздуха на высоте 2 м над землей.
R - Количество осадков - Количество выпавших осадков за период времени, мм. При наведении курсора мыши на число - период времени, за который выпало указанное количество осадков.
R24 - Количество осадков - Количество выпавших осадков за 24 часа, мм.
S - Снежный покров - Высота снежного покрова, см. При наведении курсора мыши на число - состояние снежного покрова и степень покрытия местности в баллах.